| time (UTC) | temp F | wind direction | speed MPH | gust MPH | rain 1hr in | rain 24hr in | rain mn in | humidity % | barometer mb |
| 20260503213327 | 66 | 229 | 4.0 | 7.0 | 0.00 | 0.00 | 0.00 | 22 | 1013.2 |
| 20260503212224 | 68 | 234 | 5.0 | 8.0 | 0.00 | 0.00 | 0.00 | 21 | 1013.2 |
| 20260503211227 | 68 | 272 | 3.0 | 6.0 | 0.00 | 0.00 | 0.00 | 20 | 1013.4 |
| 20260503210247 | 67 | 305 | 3.0 | 5.0 | 0.00 | 0.00 | 0.00 | 21 | 1013.5 |
| 20260503205227 | 67 | 272 | 3.0 | 4.0 | 0.00 | 0.00 | 0.00 | 19 | 1013.7 |
| 20260503204227 | 67 | 274 | 5.0 | 6.0 | 0.00 | 0.00 | 0.00 | 22 | 1013.6 |
| 20260503203228 | 68 | 273 | 2.0 | 4.0 | 0.00 | 0.00 | 0.00 | 18 | 1013.6 |
| 20260503202247 | 68 | 220 | 2.0 | 4.0 | 0.00 | 0.00 | 0.00 | 18 | 1013.5 |
| 20260503201248 | 68 | 179 | 5.0 | 7.0 | 0.00 | 0.00 | 0.00 | 19 | 1013.5 |
| 20260503200228 | 68 | 150 | 4.0 | 6.0 | 0.00 | 0.00 | 0.00 | 19 | 1013.7 |
| 20260503195225 | 69 | 216 | 5.0 | 8.0 | 0.00 | 0.00 | 0.00 | 18 | 1013.8 |
| 20260503194223 | 69 | 232 | 3.0 | 5.0 | 0.00 | 0.00 | 0.00 | 18 | 1013.7 |
| 20260503193228 | 68 | 251 | 4.0 | 7.0 | 0.00 | 0.00 | 0.00 | 18 | 1013.9 |
| 20260503192248 | 68 | 323 | 4.0 | 8.0 | 0.00 | 0.00 | 0.00 | 19 | 1014.0 |
| 20260503191229 | 69 | 13 | 4.0 | 6.0 | 0.00 | 0.00 | 0.00 | 18 | 1014.1 |
| 20260503190223 | 70 | 293 | 4.0 | 8.0 | 0.00 | 0.00 | 0.00 | 19 | 1014.1 |
| 20260503185223 | 70 | 289 | 5.0 | 8.0 | 0.00 | 0.00 | 0.00 | 19 | 1014.3 |
| 20260503184223 | 70 | 306 | 3.0 | 6.0 | 0.00 | 0.00 | 0.00 | 17 | 1014.5 |
| 20260503183224 | 70 | 323 | 6.0 | 11.0 | 0.00 | 0.00 | 0.00 | 18 | 1014.6 |
| 20260503182223 | 69 | 311 | 2.0 | 4.0 | 0.00 | 0.00 | 0.00 | 17 | 1014.9 |
| 20260503181243 | 69 | 351 | 4.0 | 6.0 | 0.00 | 0.00 | 0.00 | 18 | 1014.9 |
| 20260503180224 | 0 | 345 | 4.0 | 8.0 | 0.00 | 0.00 | 0.00 | ||
| 20260503175223 | 67 | 280 | 3.0 | 4.0 | 0.00 | 0.00 | 0.00 | 19 | 1015.3 |
| 20260503174249 | 67 | 288 | 4.0 | 6.0 | 0.00 | 0.00 | 0.00 | 20 | 1015.5 |
| 20260503173225 | 66 | 285 | 4.0 | 5.0 | 0.00 | 0.00 | 0.00 | 20 | 1015.7 |
| 20260503172222 | 66 | 298 | 3.0 | 5.0 | 0.00 | 0.00 | 0.00 | 20 | 1015.9 |
| 20260503171242 | 64 | 301 | 3.0 | 7.0 | 0.00 | 0.00 | 0.00 | 21 | 1016.1 |
| 20260503170222 | 65 | 292 | 4.0 | 8.0 | 0.00 | 0.00 | 0.00 | 21 | 1016.2 |
| 20260503150224 | 58 | 113 | 2.0 | 3.0 | 0.00 | 0.00 | 0.00 | 29 | 1017.1 |
| 20260503140230 | 57 | 169 | 4.0 | 5.0 | 0.00 | 0.00 | 0.00 | 29 | 1017.2 |
| 20260503131226 | 57 | 271 | 3.0 | 4.0 | 0.00 | 0.00 | 0.00 | 27 | 1017.2 |
| 20260503130222 | 57 | 202 | 2.0 | 3.0 | 0.00 | 0.00 | 0.00 | 28 | 1017.1 |
| 20260503110228 | 49 | 283 | 2.0 | 3.0 | 0.00 | 0.00 | 0.00 | 37 | 1016.9 |
| 20260503100248 | 52 | 271 | 2.0 | 3.0 | 0.00 | 0.00 | 0.00 | 33 | 1016.9 |
| 20260503090229 | 54 | 267 | 1.0 | 1.0 | 0.00 | 0.00 | 0.00 | 32 | 1016.9 |
| 20260503081230 | 53 | 216 | 4.0 | 5.0 | 0.00 | 0.00 | 0.00 | 32 | 1017.1 |
| 20260503080226 | 53 | 249 | 1.0 | 2.0 | 0.00 | 0.00 | 0.00 | 31 | 1017.2 |
| 20260503072247 | 55 | 274 | 2.0 | 3.0 | 0.00 | 0.00 | 0.00 | 28 | 1017.2 |
| 20260503071228 | 54 | 288 | 4.0 | 6.0 | 0.00 | 0.00 | 0.00 | 27 | 1017.3 |
| 20260503070227 | 53 | 277 | 2.0 | 4.0 | 0.00 | 0.00 | 0.00 | 26 | 1017.3 |
| 20260503060244 | 52 | 285 | 3.0 | 4.0 | 0.00 | 0.00 | 0.00 | 21 | 1017.6 |
| 20260503054218 | 0 | 295 | 3.0 | 5.0 | 0.00 | 0.00 | 0.00 | ||
| 20260503053228 | 51 | 297 | 1.0 | 1.0 | 0.00 | 0.00 | 0.00 | 23 | 1017.7 |
| 20260503052218 | 52 | 263 | 2.0 | 3.0 | 0.00 | 0.00 | 0.00 | 22 | 1017.6 |
| 20260503051218 | 51 | 283 | 3.0 | 5.0 | 0.00 | 0.00 | 0.00 | 22 | 1017.6 |
| 20260503050218 | 50 | 285 | 3.0 | 4.0 | 0.00 | 0.00 | 0.00 | 24 | 1017.7 |
| 20260503045238 | 51 | 233 | 2.0 | 3.0 | 0.00 | 0.00 | 0.00 | 24 | 1017.7 |
| 20260503044248 | 51 | 269 | 2.0 | 3.0 | 0.00 | 0.00 | 0.00 | 22 | 1017.8 |
| 20260503043228 | 51 | 286 | 3.0 | 4.0 | 0.00 | 0.00 | 0.00 | 23 | 1017.8 |
| 20260503042230 | 52 | 295 | 4.0 | 6.0 | 0.00 | 0.00 | 0.00 | 23 | 1017.8 |
| 20260503041229 | 52 | 290 | 4.0 | 7.0 | 0.00 | 0.00 | 0.00 | 22 | 1017.8 |
| 20260503040219 | 52 | 284 | 3.0 | 4.0 | 0.00 | 0.00 | 0.00 | 23 | 1017.7 |
| 20260503035230 | 53 | 254 | 2.0 | 3.0 | 0.00 | 0.00 | 0.00 | 22 | 1017.7 |
| 20260503034249 | 53 | 300 | 3.0 | 4.0 | 0.00 | 0.00 | 0.00 | 21 | 1017.7 |
| 20260503033230 | 53 | 279 | 3.0 | 6.0 | 0.00 | 0.00 | 0.00 | 23 | 1017.7 |
| 20260503032229 | 53 | 282 | 2.0 | 4.0 | 0.00 | 0.00 | 0.00 | 22 | 1017.6 |
| 20260503031229 | 54 | 284 | 3.0 | 5.0 | 0.00 | 0.00 | 0.00 | 22 | 1017.6 |
| 20260503030218 | 54 | 296 | 2.0 | 3.0 | 0.00 | 0.00 | 0.00 | 21 | 1017.7 |
| 20260503025227 | 54 | 280 | 2.0 | 3.0 | 0.00 | 0.00 | 0.00 | 21 | 1017.6 |
| 20260503024240 | 54 | 298 | 3.0 | 4.0 | 0.00 | 0.00 | 0.00 | 22 | 1017.6 |
| 20260503023231 | 55 | 290 | 3.0 | 3.0 | 0.00 | 0.00 | 0.00 | 21 | 1017.5 |
| 20260503022258 | 56 | 282 | 2.0 | 2.0 | 0.00 | 0.00 | 0.00 | 21 | 1017.3 |
| 20260503021218 | 57 | 253 | 1.0 | 1.0 | 0.00 | 0.00 | 0.00 | 19 | 1017.2 |
| 20260503020218 | 58 | 266 | 0.0 | 1.0 | 0.00 | 0.00 | 0.00 | 20 | 1017.1 |
| 20260503015218 | 60 | 270 | 0.0 | 1.0 | 0.00 | 0.00 | 0.00 | 13 | 1017.1 |
| 20260503014238 | 62 | 190 | 0.0 | 1.0 | 0.00 | 0.00 | 0.00 | 14 | 1016.9 |
| 20260503013218 | 63 | 337 | 1.0 | 1.0 | 0.00 | 0.00 | 0.00 | 12 | 1016.8 |
| 20260503012218 | 64 | 344 | 2.0 | 3.0 | 0.00 | 0.00 | 0.00 | 12 | 1016.7 |
| 20260503011219 | 65 | 325 | 2.0 | 2.0 | 0.00 | 0.00 | 0.00 | 11 | 1016.6 |
| 20260503010216 | 65 | 30 | 3.0 | 4.0 | 0.00 | 0.00 | 0.00 | 12 | 1016.5 |
| 20260503005216 | 66 | 16 | 4.0 | 4.0 | 0.00 | 0.00 | 0.00 | 10 | 1016.6 |
| 20260503004239 | 67 | 30 | 3.0 | 4.0 | 0.00 | 0.00 | 0.00 | 12 | 1016.5 |
| 20260503003219 | 66 | 9 | 2.0 | 3.0 | 0.00 | 0.00 | 0.00 | 12 | 1016.6 |
| 20260503002243 | 66 | 23 | 4.0 | 6.0 | 0.00 | 0.00 | 0.00 | 12 | 1016.6 |
| 20260503001216 | 67 | 26 | 4.0 | 5.0 | 0.00 | 0.00 | 0.00 | 12 | 1016.6 |
| 20260503000222 | 66 | 27 | 4.0 | 5.0 | 0.00 | 0.00 | 0.00 | 12 | 1016.7 |
| 20260502235217 | 66 | 117 | 4.0 | 7.0 | 0.00 | 0.00 | 0.00 | 12 | 1016.7 |
| 20260502234217 | 66 | 20 | 2.0 | 3.0 | 0.00 | 0.00 | 0.00 | 13 | 1016.8 |
| 20260502233237 | 66 | 129 | 3.0 | 5.0 | 0.00 | 0.00 | 0.00 | 12 | 1016.9 |
| 20260502232223 | 66 | 205 | 1.0 | 2.0 | 0.00 | 0.00 | 0.00 | 13 | 1016.9 |
| 20260502231218 | 66 | 12 | 4.0 | 5.0 | 0.00 | 0.00 | 0.00 | 14 | 1016.9 |
| 20260502230231 | 66 | 10 | 4.0 | 7.0 | 0.00 | 0.00 | 0.00 | 14 | 1016.9 |
| 20260502225238 | 67 | 25 | 6.0 | 7.0 | 0.00 | 0.00 | 0.00 | 14 | 1016.9 |
| 20260502224258 | 67 | 7 | 3.0 | 4.0 | 0.00 | 0.00 | 0.00 | 14 | 1017.0 |
| 20260502223218 | 66 | 150 | 3.0 | 5.0 | 0.00 | 0.00 | 0.00 | 15 | 1017.1 |
| 20260502222218 | 66 | 12 | 4.0 | 5.0 | 0.00 | 0.00 | 0.00 | 14 | 1017.2 |
| 20260502221219 | 66 | 103 | 3.0 | 5.0 | 0.00 | 0.00 | 0.00 | 14 | 1017.3 |
| 20260502220259 | 66 | 19 | 6.0 | 8.0 | 0.00 | 0.00 | 0.00 | 15 | 1017.4 |
| 20260502215219 | 66 | 66 | 4.0 | 7.0 | 0.00 | 0.00 | 0.00 | 15 | 1017.6 |
| 20260502214219 | 66 | 2 | 5.0 | 6.0 | 0.00 | 0.00 | 0.00 | 15 | 1017.8 |